CAPE
4 3 2 1 1 1 0 0 0 0 0 1 1 1 0 0 0 0 0 0 0 0 0 0 0 0 0 0 0 0 0 0 0 0 0 0 0 0 0 0 0 0 0 0 424
8 4 3 1 2 2 1 0 0 0 0 0 1 0 0 0 0 0 0 0 0 0 0 0 0 0 0 0 0 0 0 0 0 0 0 0 0 0 0 0 0 0 0 0 318
6 10 5 2 1 0 0 1 0 0 0 0 0 1 0 0 0 0 0 30 0 0 0 0 0 0 0 0 0 0 0 0 0 0 0 0 0 0 0 0 0 0 0 0 0
5 6 6 5 3 0 0 0 0 0 0 0 1 1 0 0 0 0 138 260 0 0 0 0 0 0 0 0 0 0 0 0 0 0 0 0 0 0 0 0 0 0 0 0 0
2 4 4 8 6 2 0 0 0 0 0 0 1 0 0 0 0 0 534 259 0 0 0 0 0 0 0 0 0 0 0 0 0 0 0 0 0 0 0 0 0 0 0 0 0
5 3 2 4 4 4 1 0 0 0 0 0 0 0 0 0 0 0 0 0 0 0 0 0 0 0 0 0 0 0 0 0 0 0 0 0 0 0 0 0 0 0 0 0 0
4 3 1 0 0 1 1 0 0 0 1 0 0 0 0 0 0 0 0 0 0 0 0 0 0 0 0 0 0 0 0 0 0 0 0 0 0 0 0 0 0 0 0 0 0
4 3 1 0 0 0 0 0 0 0 0 0 0 0 0 0 0 0 0 0 0 0 0 0 0 0 0 0 0 0 0 0 0 0 0 0 0 0 0 0 0 0 0 0 0
14 2 1 1 0 0 0 0 0 0 0 0 0 0 0 0 0 0 0 0 0 0 0 0 0 0 0 0 0 0 0 0 0 0 0 0 0 0 0 0 0 0 0 0 0
28 14 3 1 1 1 0 0 0 0 0 0 0 0 0 0 0 0 0 0 0 0 0 0 0 0 0 0 0 0 0 0 0 0 0 0 0 0 0 0 0 0 0 0 0
12 9 11 4 1 0 0 0 0 0 0 0 0 0 0 0 0 0 0 0 0 0 0 0 0 0 0 0 0 0 0 0 0 0 0 0 0 0 0 0 0 0 0 0 0
5 11 5 5 0 0 0 0 0 0 0 0 0 0 0 0 0 0 0 0 0 0 0 0 0 0 0 0 0 0 0 0 0 0 0 0 0 0 0 0 0 0 0 0 0
5 9 3 2 0 0 0 0 0 0 0 0 0 0 0 0 0 0 0 0 0 0 0 0 0 0 0 0 0 0 0 0 0 0 0 0 0 0 0 0 0 0 0 1 0
17 8 0 1 0 0 0 0 0 0 0 0 0 0 0 0 0 0 0 0 0 0 0 0 0 0 0 0 0 0 0 0 0 0 0 0 0 0 0 0 0 0 0 0 1
5 10 3 0 0 0 0 0 0 0 0 0 0 0 0 0 0 0 0 0 0 0 0 0 0 0 0 0 0 0 0 0 0 0 0 0 0 0 0 0 0 0 0 0 0
6 1 0 1 0 0 0 0 0 0 0 0 0 0 0 0 0 0 0 0 0 0 0 0 0 0 0 0 0 0 0 0 0 0 0 0 0 0 0 0 0 0 0 0 2
19 4 0 0 0 0 0 0 0 0 0 0 0 0 0 0 0 0 0 0 0 0 0 0 0 0 0 0 0 0 0 0 0 0 0 0 0 0 0 0 0 0 0 0 0
38 8 0 1 0 0 0 0 0 0 0 0 0 0 0 0 0 0 0 0 0 0 0 0 0 0 0 0 0 0 0 0 0 0 0 0 0 0 0 0 0 0 0 0 1
27 0 0 0 3 0 0 15 0 0 0 0 0 0 0 0 0 0 0 0 0 0 0 0 0 0 0 0 0 0 0 0 0 0 0 0 0 0 0 0 0 0 0 0 0
0 0 0 0 27 1 0 0 0 0 0 0 0 0 0 0 0 0 0 0 0 0 0 0 0 0 0 0 0 0 0 0 0 0 0 0 0 0 0 0 0 1 0 0 0
0 0 0 0 73 47 8 1 0 0 0 0 0 0 0 0 0 0 0 0 0 0 0 0 0 0 0 0 0 0 0 0 0 0 0 0 0 0 0 0 0 0 0 0 0
1 8 0 16 75 42 13 9 0 0 0 0 0 0 0 0 0 0 0 0 0 0 0 0 0 0 0 0 0 0 0 0 0 0 0 0 0 0 0 0 0 0 0 0 0
23 3 0 32 0 12 19 21 19 14 0 0 0 0 0 0 0 0 0 0 0 0 0 0 0 0 0 0 0 0 0 0 0 0 0 0 0 0 0 0 0 0 0 0 0
24 23 2 20 0 0 0 8 30 40 41 1 0 0 0 0 0 0 0 0 0 0 0 0 0 0 0 0 0 0 0 0 0 0 0 0 0 0 0 0 0 0 0 0 0
42 30 11 0 8 1 3 0 19 30 48 8 0 0 0 0 0 0 0 0 0 0 0 0 0 0 0 0 0 0 0 0 0 0 0 0 0 0 0 0 0 0 0 0 0
31 40 30 7 0 0 4 0 34 1 39 34 2 0 0 0 0 0 0 0 0 0 0 0 0 0 0 0 0 0 0 0 0 0 0 0 0 0 0 0 0 0 0 1 0
14 22 44 10 6 2 0 5 0 13 43 29 35 4 0 0 0 0 0 0 0 0 0 0 0 0 0 0 0 0 0 0 0 0 0 0 0 0 0 0 0 0 0 0 0
CIN
-0 -0 -0 -0 -0 -0 -0 -0 -0 -0 -0 -0 -0 -0 -0 -0 -0 -0 -0 -0 -0 -0 -0 -0 -0 -0 -0 -0 -0 -0 -0 -0 -0 -0 -0 -0 -0 -0 -0 -0 -0 -0 -0 -0 -179
-0 -0 -0 -0 -0 -0 -0 -0 -0 -0 -0 -0 -0 -0 -0 -0 -0 -0 -0 -0 -0 -0 -0 -0 -0 -0 -0 -0 -0 -0 -0 -0 -0 -0 -0 -0 -0 -0 -0 -0 -0 -0 -0 -0 -170
-0 -0 -0 -0 -0 -0 -0 -0 -0 -0 -0 -0 -0 -0 -0 -0 -0 -0 -0 -173 -0 -0 -0 -0 -0 -0 -0 -0 -0 -0 -0 -0 -0 -0 -0 -0 -0 -0 -0 -0 -0 -0 -0 -0 -0
-0 -0 -0 -0 -0 -0 -0 -0 -0 -0 -0 -0 -0 -0 -0 -0 -0 -0 -155 -95 -0 -0 -0 -0 -0 -0 -0 -0 -0 -0 -0 -0 -0 -0 -0 -0 -0 -0 -0 -0 -0 -0 -0 -0 -0
-0 -0 -0 -0 -0 -0 -0 -0 -0 -0 -0 -0 -0 -0 -0 -0 -0 -0 -92 -121 -0 -0 -0 -0 -0 -0 -0 -0 -0 -0 -0 -0 -0 -0 -0 -0 -0 -0 -0 -0 -0 -0 -0 -0 -0
-0 -0 -0 -0 -0 -0 -0 -0 -0 -0 -0 -0 -0 -0 -0 -0 -0 -0 -0 -0 -0 -0 -0 -0 -0 -0 -0 -0 -0 -0 -0 -0 -0 -0 -0 -0 -0 -0 -0 -0 -0 -0 -0 -0 -0
-0 -0 -0 -0 -0 -0 -0 -0 -0 -0 -0 -0 -0 -0 -0 -0 -0 -0 -0 -0 -0 -0 -0 -0 -0 -0 -0 -0 -0 -0 -0 -0 -0 -0 -0 -0 -0 -0 -0 -0 -0 -0 -0 -0 -0
-0 -0 -0 -0 -0 -0 -0 -0 -0 -0 -0 -0 -0 -0 -0 -0 -0 -0 -0 -0 -0 -0 -0 -0 -0 -0 -0 -0 -0 -0 -0 -0 -0 -0 -0 -0 -0 -0 -0 -0 -0 -0 -0 -0 -0
-2 -1 -0 -0 -0 -0 -0 -0 -0 -0 -0 -0 -0 -0 -0 -0 -0 -0 -0 -0 -0 -0 -0 -0 -0 -0 -0 -0 -0 -0 -0 -0 -0 -0 -0 -0 -0 -0 -0 -0 -0 -0 -0 -0 -0
-2 -6 -10 -0 -0 -0 -0 -0 -0 -0 -0 -0 -0 -0 -0 -0 -0 -0 -0 -0 -0 -0 -0 -0 -0 -0 -0 -0 -0 -0 -0 -0 -0 -0 -0 -0 -0 -0 -0 -0 -0 -0 -0 -0 -0
-0 -8 -5 -9 -0 -0 -0 -0 -0 -0 -0 -0 -0 -0 -0 -0 -0 -0 -0 -0 -0 -0 -0 -0 -0 -0 -0 -0 -0 -0 -0 -0 -0 -0 -0 -0 -0 -0 -0 -0 -0 -0 -0 -0 -0
-0 -0 -11 -5 -0 -0 -0 -0 -0 -0 -0 -0 -0 -0 -0 -0 -0 -0 -0 -0 -0 -0 -0 -0 -0 -0 -0 -0 -0 -0 -0 -0 -0 -0 -0 -0 -0 -0 -0 -0 -0 -0 -0 -0 -0
-0 -0 -0 -0 -0 -0 -0 -0 -0 -0 -0 -0 -0 -0 -0 -0 -0 -0 -0 -0 -0 -0 -0 -0 -0 -0 -0 -0 -0 -0 -0 -0 -0 -0 -0 -0 -0 -0 -0 -0 -0 -0 -0 -9 -0
-0 -0 -0 -0 -0 -0 -0 -0 -0 -0 -0 -0 -0 -0 -0 -0 -0 -0 -0 -0 -0 -0 -0 -0 -0 -0 -0 -0 -0 -0 -0 -0 -0 -0 -0 -0 -0 -0 -0 -0 -0 -0 -0 -0 -6
-0 -0 -0 -0 -0 -0 -0 -0 -0 -0 -0 -0 -0 -0 -0 -0 -0 -0 -0 -0 -0 -0 -0 -0 -0 -0 -0 -0 -0 -0 -0 -0 -0 -0 -0 -0 -0 -0 -0 -0 -0 -0 -0 -0 -0
-0 -0 -0 -0 -0 -0 -0 -0 -0 -0 -0 -0 -0 -0 -0 -0 -0 -0 -0 -0 -0 -0 -0 -0 -0 -0 -0 -0 -0 -0 -0 -0 -0 -0 -0 -0 -0 -0 -0 -0 -0 -0 -0 -0 -0
-0 -0 -0 -0 -0 -0 -0 -0 -0 -0 -0 -0 -0 -0 -0 -0 -0 -0 -0 -0 -0 -0 -0 -0 -0 -0 -0 -0 -0 -0 -0 -0 -0 -0 -0 -0 -0 -0 -0 -0 -0 -0 -0 -0 -0
-1 -1 -0 -0 -0 -0 -0 -0 -0 -0 -0 -0 -0 -0 -0 -0 -0 -0 -0 -0 -0 -0 -0 -0 -0 -0 -0 -0 -0 -0 -0 -0 -0 -0 -0 -0 -0 -0 -0 -0 -0 -0 -0 -0 -0
-6 -0 -0 -0 -2 -0 -0 -0 -0 -0 -0 -0 -0 -0 -0 -0 -0 -0 -0 -0 -0 -0 -0 -0 -0 -0 -0 -0 -0 -0 -0 -0 -0 -0 -0 -0 -0 -0 -0 -0 -0 -0 -0 -0 -0
-0 -0 -0 -0 -12 -3 -0 -0 -0 -0 -0 -0 -0 -0 -0 -0 -0 -0 -0 -0 -0 -0 -0 -0 -0 -0 -0 -0 -0 -0 -0 -0 -0 -0 -0 -0 -0 -0 -0 -0 -0 -0 -0 -0 -0
-0 -0 -0 -0 -2 -0 -0 -2 -0 -0 -0 -0 -0 -0 -0 -0 -0 -0 -0 -0 -0 -0 -0 -0 -0 -0 -0 -0 -0 -0 -0 -0 -0 -0 -0 -0 -0 -0 -0 -0 -0 -0 -0 -0 -0
-10 -0 -0 -17 -0 -2 -2 -8 -0 -0 -0 -0 -0 -0 -0 -0 -0 -0 -0 -0 -0 -0 -0 -0 -0 -0 -0 -0 -0 -0 -0 -0 -0 -0 -0 -0 -0 -0 -0 -0 -0 -0 -0 -0 -0
-1 -3 -0 -10 -0 -2 -4 -2 -2 -0 -0 -0 -0 -0 -0 -0 -0 -0 -0 -0 -0 -0 -0 -0 -0 -0 -0 -0 -0 -0 -0 -0 -0 -0 -0 -0 -0 -0 -0 -0 -0 -0 -0 -0 -0
-2 -2 -9 -7 -0 -0 -0 -1 -0 -1 -3 -12 -0 -0 -0 -0 -0 -0 -0 -0 -0 -0 -0 -0 -0 -0 -0 -0 -0 -0 -0 -0 -0 -0 -0 -0 -0 -0 -0 -0 -0 -0 -0 -0 -0
-3 -1 -5 -0 -0 -0 -0 -0 -0 -1 -4 -18 -0 -0 -0 -0 -0 -0 -0 -0 -0 -0 -0 -0 -0 -0 -0 -0 -0 -0 -0 -0 -0 -0 -0 -0 -0 -0 -0 -0 -0 -0 -0 -0 -0
-2 -3 -0 -3 -0 -0 -0 -0 -0 -0 -0 -1 -10 -0 -0 -0 -0 -0 -0 -0 -0 -0 -0 -0 -0 -0 -0 -0 -0 -0 -0 -0 -0 -0 -0 -0 -0 -0 -0 -0 -0 -0 -0 -0 -0
-18 -13 -4 -1 -3 -0 -0 -0 -0 -7 -0 -0 -2 -7 -0 -0 -0 -0 -0 -0 -0 -0 -0 -0 -0 -0 -0 -0 -0 -0 -0 -0 -0 -0 -0 -0 -0 -0 -0 -0 -0 -0 -0 -0 -0
Wind_Speed
13 13 13 13 14 13 12 12 13 12 13 15 15 14 13 13 9 1 3 6 5 5 3 4 3 2 3 4 3 2 4 1 3 6 2 1 1 1 1 2 3 1 1 4 4
15 15 14 14 14 15 15 13 12 11 11 12 14 14 13 12 2 4 5 8 7 5 2 5 3 1 3 2 2 4 2 6 4 4 3 1 3 2 1 3 2 4 4 9 3
14 15 16 15 14 15 15 16 12 11 11 12 11 13 12 8 2 6 11 10 8 5 4 3 4 2 3 2 1 3 3 3 4 7 2 2 3 3 2 1 3 8 10 7 6
13 13 15 16 17 17 17 17 16 12 11 10 11 10 10 3 5 3 13 11 9 6 5 5 3 3 3 2 2 1 5 4 3 2 4 4 2 2 1 3 2 2 2 2 6
12 13 15 16 17 18 18 18 19 16 10 8 8 7 4 2 8 4 12 10 5 3 3 4 3 4 4 3 4 3 2 4 5 5 5 3 6 4 5 4 2 3 4 6 7
12 13 13 15 17 19 19 18 17 20 13 5 5 3 3 4 1 6 9 6 5 3 2 3 5 4 4 3 4 3 3 5 5 2 3 5 3 6 4 4 4 5 6 6 8
12 13 14 14 15 18 20 21 20 17 14 0 4 3 1 10 1 6 7 4 6 4 4 2 5 3 4 3 1 0 3 4 3 1 2 4 2 5 3 5 4 3 4 7 8
12 14 15 14 16 17 19 20 21 14 8 2 10 3 6 1 4 5 4 3 3 2 4 5 4 4 1 3 4 2 3 2 1 3 1 3 6 3 2 4 1 3 6 9 8
11 12 14 16 16 18 20 21 16 3 2 1 3 5 7 3 4 5 4 6 4 3 3 4 4 2 2 4 2 5 1 2 6 2 1 3 5 1 2 3 2 5 9 12 14
15 12 12 14 16 18 22 17 4 2 1 1 1 3 3 5 3 6 2 7 4 4 3 4 4 2 2 2 3 3 2 2 4 2 1 3 10 6 6 4 2 7 11 13 13
16 17 12 14 16 17 11 4 4 1 0 8 7 4 3 3 5 2 4 5 4 3 4 1 2 6 9 5 2 3 3 4 4 4 3 4 7 10 5 3 3 9 12 14 15
15 15 16 14 16 15 2 3 2 4 8 10 12 7 4 4 4 4 7 6 5 6 3 2 6 8 4 5 4 3 2 4 4 3 3 4 12 3 4 3 4 8 14 16 19
17 15 17 17 17 3 2 2 6 2 4 8 7 7 7 7 8 10 10 6 4 6 6 6 4 4 5 4 5 4 4 4 5 2 1 5 4 2 2 3 4 9 9 13 15
15 16 18 20 3 4 3 6 6 2 3 8 6 7 6 5 4 6 8 8 3 10 7 6 4 6 5 5 5 2 4 3 2 1 3 3 4 2 3 1 5 10 8 12 14
15 16 16 8 4 3 5 8 5 3 7 4 4 2 1 9 6 2 3 5 9 7 7 6 4 4 4 6 7 5 2 2 1 3 1 1 2 3 1 3 5 9 11 12 13
15 14 15 2 1 5 6 9 2 4 11 3 5 5 7 1 3 4 5 5 5 5 1 5 2 5 6 3 3 6 4 5 3 2 2 2 3 3 3 2 3 6 9 9 12
13 15 13 5 3 2 6 3 1 8 4 6 5 6 7 6 2 2 8 6 8 5 6 1 4 2 4 5 2 3 4 2 0 1 3 2 1 6 5 5 4 4 6 9 10
13 15 5 6 4 2 3 2 9 6 14 1 4 3 8 7 5 4 6 8 4 5 3 7 4 8 5 6 7 4 5 5 4 3 2 1 6 2 4 6 4 2 4 5 8
9 3 3 4 6 2 3 9 10 7 6 9 2 4 4 4 6 5 7 7 9 10 8 5 4 2 2 3 4 4 4 3 7 1 1 2 5 3 6 5 4 5 4 4 6
2 3 5 5 6 3 3 13 8 3 5 2 18 8 12 8 8 8 9 7 8 12 5 6 3 1 3 4 5 3 8 4 2 3 3 3 5 4 6 9 8 8 6 1 4
2 3 6 2 4 3 10 9 9 15 9 4 6 7 7 9 10 7 9 3 5 7 5 6 3 2 4 6 8 3 2 4 4 2 3 2 5 6 7 10 12 9 8 5 2
2 3 4 2 3 4 10 5 7 14 8 12 5 6 9 9 8 10 14 9 9 13 11 6 5 4 6 2 4 3 6 6 4 5 1 1 6 3 5 7 10 10 8 5 3
3 4 2 5 3 7 9 13 13 17 11 2 11 7 3 8 4 8 8 2 11 12 15 10 3 3 3 3 0 5 5 4 5 3 7 5 5 2 4 6 7 12 10 7 4
2 3 2 3 5 9 14 13 16 13 19 16 6 12 4 3 2 4 6 2 7 7 10 10 5 7 9 6 6 7 7 7 5 4 6 7 2 5 9 10 10 11 12 10 8
5 6 5 3 6 12 13 12 17 10 12 8 10 22 15 4 2 5 1 3 1 7 5 7 8 6 4 2 4 5 9 13 12 7 8 5 11 9 12 15 16 15 13 13 12
4 4 2 6 10 14 13 11 17 22 17 16 18 18 22 14 3 3 3 4 8 5 7 2 5 5 4 5 4 3 5 14 12 3 9 2 9 8 1 8 12 15 17 16 14
4 4 4 7 5 6 11 16 17 12 18 17 16 15 18 23 10 11 8 15 5 6 12 10 8 5 4 5 6 6 16 13 8 7 12 11 11 6 5 9 15 17 18 18 17
Wind_Direction
353 356 353 351 347 343 343 344 341 335 330 323 323 319 320 328 324 86 247 208 167 181 151 120 76 94 68 85 88 140 73 171 219 181 228 239 308 255 337 286 323 247 290 347 357
352 349 349 349 346 339 337 340 341 337 328 324 318 313 317 325 313 249 233 141 153 192 112 122 120 149 67 91 57 81 122 213 205 204 219 207 214 260 225 329 327 319 5 350 325
351 345 343 342 343 339 337 333 336 335 327 327 319 312 316 325 323 243 161 158 154 133 97 107 120 111 82 72 100 136 196 200 244 223 224 243 234 196 223 90 46 293 311 358 28
348 343 343 340 340 337 336 332 327 329 330 329 318 320 323 303 212 187 157 154 143 125 126 123 80 79 90 132 142 205 232 194 263 224 163 219 183 198 143 140 170 358 38 358 7
346 343 341 340 337 334 333 332 327 323 322 321 318 334 359 242 253 169 146 141 125 131 118 126 109 122 162 166 147 196 264 192 257 277 258 248 230 211 150 151 130 41 23 5 347
342 341 339 339 336 332 329 326 326 318 304 311 338 40 107 251 260 150 140 144 149 127 123 114 162 171 144 164 177 201 259 280 289 248 242 192 211 163 180 159 91 39 3 355 344
338 339 338 335 334 332 328 325 321 318 296 134 88 109 208 234 63 151 154 172 166 147 133 134 130 130 139 157 232 145 303 324 210 287 279 149 212 225 142 170 114 46 356 339 325
335 336 336 333 330 330 328 322 319 312 286 83 116 111 239 318 126 153 152 91 100 103 103 121 122 103 118 118 31 70 63 6 291 334 127 184 265 220 183 185 242 343 330 326 311
329 332 331 330 327 326 324 319 319 305 195 123 66 116 262 122 145 196 163 148 113 62 64 97 76 94 63 102 30 13 230 222 312 325 265 192 271 234 185 200 257 334 330 325 321
336 317 320 324 325 327 323 314 280 6 36 236 272 69 250 219 180 150 174 138 125 109 59 54 60 98 73 123 228 195 235 246 244 265 261 246 265 247 216 219 313 334 321 317 315
350 344 317 322 325 328 340 1 14 350 82 202 239 217 165 176 126 149 157 100 101 89 178 18 139 212 216 193 153 147 181 245 247 264 259 256 273 281 214 207 0 341 323 325 323
350 350 343 325 320 328 347 57 37 292 297 236 234 277 263 173 126 153 137 140 148 191 123 39 239 227 175 158 163 165 218 257 286 244 240 295 287 303 178 107 53 333 336 329 327
3 359 351 335 319 30 314 314 298 294 255 281 190 209 208 159 185 193 152 138 153 149 190 181 220 104 149 155 163 200 194 205 230 319 238 313 284 69 69 94 324 343 318 340 330
352 352 351 332 57 334 293 310 315 213 292 266 227 257 164 156 224 173 167 142 165 189 163 236 253 187 162 192 146 236 194 193 200 30 261 349 292 293 153 271 352 315 2 345 335
345 347 342 345 314 328 298 321 296 30 286 218 188 149 97 177 150 168 186 79 162 176 138 243 187 163 162 197 169 214 125 139 145 184 328 249 210 254 178 230 326 331 14 346 345
338 341 347 346 272 263 320 311 36 55 250 252 146 160 125 263 337 119 128 63 130 125 240 232 259 176 192 101 159 136 102 57 63 120 230 212 210 260 189 216 301 311 15 343 343
328 326 322 289 256 330 333 339 112 204 301 206 195 170 158 153 137 159 151 164 153 140 220 337 217 190 137 97 40 89 84 327 135 217 237 136 234 254 170 193 199 306 23 344 348
325 316 274 247 260 32 14 289 196 201 214 60 121 95 180 149 187 167 129 183 225 116 129 168 260 169 183 174 180 173 162 159 208 214 266 309 232 229 160 171 182 269 81 351 352
340 309 279 242 210 107 134 215 223 181 203 167 123 139 224 208 151 141 186 204 194 170 187 149 266 109 86 129 146 175 190 134 107 55 279 237 269 194 155 193 189 162 79 15 345
341 310 255 261 145 116 174 211 253 259 335 242 213 176 184 187 157 177 168 197 202 186 152 208 117 146 141 99 39 174 146 121 53 162 245 263 270 231 190 183 186 162 148 123 330
27 330 259 237 123 177 229 226 247 267 290 301 263 218 189 171 178 198 196 223 218 162 127 138 115 185 126 203 170 146 187 66 114 158 190 275 255 202 171 166 177 168 162 164 175
168 260 288 359 241 242 229 219 222 274 266 247 294 271 195 170 177 196 202 202 157 145 164 177 129 173 187 225 176 177 178 158 147 186 89 318 272 140 166 159 159 162 167 162 147
229 242 273 88 242 246 265 255 241 253 259 244 242 245 240 176 212 200 195 164 159 157 161 178 172 104 25 0 127 206 191 138 110 113 189 161 256 141 158 161 165 156 165 160 164
252 262 256 178 222 238 252 264 256 226 243 261 280 301 220 220 190 261 198 213 197 176 168 121 142 165 189 192 140 189 176 174 143 163 163 224 251 224 206 193 176 173 171 166 171
201 224 191 226 223 231 244 270 254 265 212 222 242 253 276 258 89 229 186 130 95 177 131 142 184 169 215 163 151 170 173 179 202 178 187 208 206 217 209 200 188 175 171 172 170
224 198 188 247 234 246 238 252 256 264 246 221 234 221 244 248 154 309 334 217 183 199 157 224 163 143 211 194 206 232 191 196 213 213 265 201 254 215 167 130 159 175 176 182 177
192 224 220 234 233 242 235 242 252 275 241 254 259 238 228 238 272 298 272 267 249 201 175 158 138 138 212 130 129 271 217 189 197 206 204 209 227 155 180 198 183 177 181 186 183